"Pseudo-MPEC" for CCPLTL2

Created 2025 Jan 15 9:31:04 UT using Find_Orb

Click here for an explanation of pseudo-MPECs

 
 Astrometry: 
     CCPLTL2*1C2025 01 07.17622504 15 20.938+12 00 42.37   ~1752       VNEOCPG96
     CCPLTL2 1C2025 01 07.18093104 15 24.491+12 01 45.73   ~1752 20.55GVNEOCPG96
     CCPLTL2 1C2025 01 07.18562704 15 28.051+12 02 49.27   ~1752 20.66GVNEOCPG96
     CCPLTL2 1C2025 01 07.19033004 15 31.568+12 03 51.66   ~1752 20.72GVNEOCPG96
     CCPLTL2 KC2025 01 07.27344504 16 33.805+12 22 07.86   ~177H 20.23GVNEOCPI52
     CCPLTL2 KC2025 01 07.27506904 16 35.029+12 22 28.85   ~177H 19.95GVNEOCPI52
     CCPLTL2 KC2025 01 07.27668804 16 36.235+12 22 50.16   ~177H 20.48GVNEOCPI52
     CCPLTL2 KC2025 01 07.27830304 16 37.412+12 23 11.18   ~177H 20.34GVNEOCPI52
     CCPLTL2 KB2025 01 07.73756804 22 32.460+13 58 04.91   ~181H 19.9 GWNEOCP204
     CCPLTL2 HB2025 01 07.76492104 22 51.451+14 03 30.20   ~181H       WNEOCP204
     CCPLTL2 KC2025 01 07.78349304 23 04.769+14 06 58.75   ~17KH 20.2 GWNEOCPJ95
     CCPLTL2 KC2025 01 07.80605104 23 20.395+14 11 25.08   ~17KH 20.4 GWNEOCPJ95
     CCPLTL2 KC2025 01 07.81896504 23 29.275+14 13 55.45   ~17KH 20.3 GWNEOCPJ95
     CCPLTL2 1C2025 01 08.36400004 29 38.167+15 54 44.99   ~18NV 20.17GVNEOCPT12
     CCPLTL2 1C2025 01 08.36487004 29 38.646+15 54 53.06   ~18NVx19.47GVNEOCPT12
     CCPLTL2 1C2025 01 08.36587004 29 39.293+15 55 04.08   ~18NV 19.84GVNEOCPT12

Station data:
(204) Schiaparelli Observatory  (N45.868292 E8.769720)  Italy.  Observer L.
   Buzzi. 0.84-m f/3.5 reflector + CCD.
(G96) Mt. Lemmon Survey  (N32.442729 W110.788720)  US/Arizona.  Observer E.
   J. Christensen.  + 10K CCD.
(I52) Steward Observatory, Mt. Lemmon Station  (N32.442570 W110.788920)
   US/Arizona.  Observers T. A. Pruyne, B. M. Africano, E. J. Christensen, G.
   A. Farneth, D. C. Fuls, A. R. Gibbs, A. D. Grauer, H. Gröller, J. A.
   Johnson, R. A. Kowalski, S. M. Larson, G. J. Leonard, D. Rankin, R. L.
   Seaman, F. C. Shelly, K. W. Wierzchoś. 1.0-m prime focus + CCD.
(J95) Great Shefford  (N51.474969 W1.447003)  UK/England.  Observer P.
   Birtwhistle. 0.41-m f/6.3 Schmidt-Cassegrain + CCD.
(T12) Mauna Kea-UH/Tholen NEO Follow-Up (2.24-m)  (N19.822991 W155.469434)
   US/Hawaii.  Observer R. Weryk. 2.24-m f/10.1 University of Hawaii
   reflector.

Orbital elements:  CCPLTL2
   Perihelion 2024 Nov 5.62873 +/- 0.0562 TT = 15:05:22 (JD 2460620.12873)
Epoch 2025 Jan  8.0 TT = JDT 2460683.5   Earth MOID: 0.0250   Ve: 0.0158
M  46.54294029 +/- 0.13             (J2000 ecliptic)             AutoNEOCP
n   0.73444857 +/- 0.00142          Peri.  256.44726 +/- 0.026
a   1.21663914 +/- 0.00157          Node   107.97807 +/- 0.006
e   0.4660114 +/- 0.00107           Incl.    9.12800 +/- 0.022
P   1.342/490.154d         H 24.65  G  0.15   U  8.3
q 0.64967131 +/- 0.000493    Q 1.78360697 +/- 0.00358
15 of 16 observations 2025 Jan. 7-8 (28.6 hr); mean residual 0".28
Residuals in arcseconds: 
250107 G96  .03-  .58-    250107 I52  .01+  .13+    250107 J95  .05-  .23-    
250107 G96  .05+  .24-    250107 I52  .43-  .12+    250108 T12  .11+  .09+    
250107 G96  .38+  .50+    250107 204  .58+  .41-    250108 T12( .64-  .81-)   
250107 G96  .06+  .08+    250107 204  .16-  .46-    250108 T12  .10-  .10-    
250107 I52  .07-  .08+    250107 J95  .13-  .23-    
250107 I52  .08+  .09-    250107 J95  .06+  .65+    

Ephemerides (geocentric):
Date (UTC) HH   RA             Dec           delta  r     elong  mag " sig PA
---- --------  ------------   ------------  ------ ------ -----  --- --------
2025 01 15 10  05 18 28.490   +27 08 22.84  .13788 1.0999 145.4 21.9 1.26  94
2025 01 15 11  05 18 39.552   +27 10 28.61  .13826 1.1002 145.4 21.9 1.27  94
2025 01 15 12  05 18 50.569   +27 12 33.63  .13864 1.1006 145.4 21.9 1.27  94
2025 01 15 13  05 19 01.542   +27 14 37.91  .13902 1.1009 145.4 21.9 1.28  94
2025 01 15 14  05 19 12.472   +27 16 41.46  .13940 1.1012 145.4 21.9 1.29  94
2025 01 15 15  05 19 23.357   +27 18 44.27  .13978 1.1015 145.4 21.9 1.30  94
2025 01 15 16  05 19 34.200   +27 20 46.36  .14016 1.1019 145.4 21.9 1.31  94
2025 01 15 17  05 19 44.999   +27 22 47.72  .14054 1.1022 145.4 21.9 1.31  94
2025 01 15 18  05 19 55.756   +27 24 48.38  .14093 1.1025 145.4 21.9 1.32  94
2025 01 15 19  05 20 06.471   +27 26 48.32  .14131 1.1029 145.4 21.9 1.33  94
2025 01 15 20  05 20 17.143   +27 28 47.56  .14169 1.1032 145.4 21.9 1.34  94
2025 01 15 21  05 20 27.774   +27 30 46.10  .14207 1.1035 145.3 21.9 1.35  94
2025 01 15 22  05 20 38.363   +27 32 43.95  .14246 1.1038 145.3 21.9 1.35  94
2025 01 15 23  05 20 48.911   +27 34 41.12  .14284 1.1042 145.3 22.0 1.36  94
2025 01 16 00  05 20 59.418   +27 36 37.60  .14322 1.1045 145.3 22.0 1.37  94
2025 01 16 01  05 21 09.885   +27 38 33.40  .14360 1.1048 145.3 22.0 1.38  94
2025 01 16 02  05 21 20.311   +27 40 28.53  .14399 1.1051 145.3 22.0 1.39  94
2025 01 16 03  05 21 30.697   +27 42 23.00  .14437 1.1055 145.3 22.0 1.39  94
2025 01 16 04  05 21 41.044   +27 44 16.81  .14476 1.1058 145.3 22.0 1.40  94
2025 01 16 05  05 21 51.351   +27 46 09.95  .14514 1.1061 145.3 22.0 1.41  94
2025 01 16 06  05 22 01.619   +27 48 02.45  .14552 1.1064 145.3 22.0 1.42  94
2025 01 16 07  05 22 11.848   +27 49 54.30  .14591 1.1068 145.3 22.0 1.43  94
2025 01 16 08  05 22 22.038   +27 51 45.51  .14629 1.1071 145.3 22.0 1.43  94
2025 01 16 09  05 22 32.190   +27 53 36.09  .14668 1.1074 145.3 22.0 1.44  94
2025 01 16 10  05 22 42.304   +27 55 26.03  .14706 1.1078 145.3 22.0 1.45  94
2025 01 16 11  05 22 52.380   +27 57 15.34  .14745 1.1081 145.3 22.0 1.46  94
2025 01 16 12  05 23 02.419   +27 59 04.03  .14783 1.1084 145.3 22.0 1.47  94
2025 01 16 13  05 23 12.420   +28 00 52.11  .14822 1.1087 145.3 22.0 1.48  93
2025 01 16 14  05 23 22.384   +28 02 39.57  .14860 1.1091 145.2 22.0 1.48  93
2025 01 16 15  05 23 32.311   +28 04 26.42  .14899 1.1094 145.2 22.1 1.49  93
2025 01 16 16  05 23 42.202   +28 06 12.67  .14937 1.1097 145.2 22.1 1.50  93
2025 01 16 17  05 23 52.056   +28 07 58.31  .14976 1.1100 145.2 22.1 1.51  93
2025 01 16 18  05 24 01.875   +28 09 43.37  .15015 1.1104 145.2 22.1 1.52  93
2025 01 16 19  05 24 11.657   +28 11 27.83  .15053 1.1107 145.2 22.1 1.52  93
2025 01 16 20  05 24 21.405   +28 13 11.71  .15092 1.1110 145.2 22.1 1.53  93
2025 01 16 21  05 24 31.116   +28 14 55.00  .15131 1.1113 145.2 22.1 1.54  93
2025 01 16 22  05 24 40.793   +28 16 37.71  .15169 1.1117 145.2 22.1 1.55  93
2025 01 16 23  05 24 50.435   +28 18 19.86  .15208 1.1120 145.2 22.1 1.56  93
2025 01 17 00  05 25 00.042   +28 20 01.43  .15247 1.1123 145.2 22.1 1.57  93
2025 01 17 01  05 25 09.615   +28 21 42.43  .15285 1.1126 145.2 22.1 1.57  93
2025 01 17 02  05 25 19.154   +28 23 22.88  .15324 1.1130 145.2 22.1 1.58  93
2025 01 17 03  05 25 28.659   +28 25 02.77  .15363 1.1133 145.1 22.1 1.59  93
2025 01 17 04  05 25 38.130   +28 26 42.10  .15402 1.1136 145.1 22.1 1.60  93
2025 01 17 05  05 25 47.568   +28 28 20.89  .15441 1.1139 145.1 22.1 1.61  93
2025 01 17 06  05 25 56.973   +28 29 59.13  .15479 1.1143 145.1 22.1 1.61  93
2025 01 17 07  05 26 06.344   +28 31 36.83  .15518 1.1146 145.1 22.2 1.62  93
2025 01 17 08  05 26 15.683   +28 33 13.99  .15557 1.1149 145.1 22.2 1.63  93
2025 01 17 09  05 26 24.990   +28 34 50.61  .15596 1.1152 145.1 22.2 1.64  93